Regional Weather Roundup
Issued by NWS

Home | Current Version | Previous Version | Text Only | Print | Product List | Glossary Off
Versions: 1 2 3 4 5 6 7 8 9 10 11 12 13 14 15 16 17 18 19 20 21 22 23 24 25 26 27 28 29 30 31 32 33 34 35 36 37 38 39 40 41 42 43 44 45 46 47 48 49 50

000
ASUS43 KMPX 230301
RWRMN
WEATHER ROUNDUP FOR MINNESOTA
NATIONAL WEATHER SERVICE TWIN CITIES/CHANHASSEN MN
1000 PM CDT FRI AUG 22 2014


NOTE: "FAIR" INDICATES FEW OR NO CLOUDS BELOW 12,000 FEET WITH NO
SIGNIFICANT WEATHER AND/OR OBSTRUCTIONS TO VISIBILITY. N/A MEANS
CURRENT SKY AND/OR WEATHER CONDITIONS ARE NOT AVAILABLE.

MNZ060>063-068>070-230400-
   Twin Cities Metro

CITY           SKY/WX    TMP DP  RH WIND       PRES   REMARKS
TWIN CITIES    PTCLDY    73  67  81 NE7       30.02R
ST PAUL        CLOUDY    74  67  78 CALM      30.02R
CRYSTAL        CLEAR     70  65  84 NW3       30.02R
BLAINE         CLEAR     70  70 100 CALM      30.03R
LAKEVILLE      CLEAR     70  64  83 NE3       30.02F
EDEN PRAIRIE   CLEAR     71  67  87 CALM      30.01R
SOUTH ST PAUL  CLOUDY    75  66  74 E3        30.02S
LAKE ELMO      CLOUDY    72  70  94 CALM      30.04R
$$
MNZ001>005-007-008-013>017-022>024-027-028-230400-
   Northwest Minnesota

CITY           SKY/WX    TMP DP  RH WIND       PRES   REMARKS
BEMIDJI        FOG       65  64  98 CALM      30.05R VSB 3/4
HALLOCK        CLOUDY    66  63  88 N10       30.08F
ROSEAU         PTCLDY    66  61  82 N7        30.08R
WARROAD        CLOUDY    66  63  88 NW5       30.08R
THIEF RVR FALL CLOUDY    66  64  94 N10       30.06R
CROOKSTON      CLOUDY    66  64  94 N12       30.06R
FOSSTON        CLOUDY    64  64 100 NW3       30.06R
DETROIT LAKES  MOCLDY    68  66  94 N8        30.07R
MOORHEAD       CLOUDY    68  68 100 N5        30.06R
PARK RAPIDS    PTCLDY    67  67 100 CALM      30.05R
MAHNOMEN       CLOUDY    68  66  93 N10       30.04S
$$
MNZ006-009>011-018-025>026-230400-
   North Central Minnesota

CITY           SKY/WX    TMP DP  RH WIND       PRES   REMARKS
BAUDETTE       CLEAR     66  64  93 N5        30.05S
FLAG ISLAND    MOCLDY    70  64  83 N6        30.06R
INTL FALLS     CLOUDY    68  65  90 N3        30.06R
WASKISH        CLOUDY    70  66  88 CALM      30.05S
BIG FORK       PTCLDY    70  66  88 NE5       30.05S
LONGVILLE      CLOUDY    70  68  94 CALM      30.04R FOG
GRAND RAPIDS   MOCLDY    70  64  83 SE3       30.05R
CRANE LAKE     PTCLDY    61  59  94 CALM      30.07R
ORR            MOCLDY    66  63  88 CALM      30.03S
COOK           CLOUDY    68  64  88 CALM      30.06R
WALKER         FAIR      65  64  99 CALM      30.05R
$$
MNZ012-019>021-037-230400-
   Northeast Minnesota

CITY           SKY/WX    TMP DP  RH WIND       PRES   REMARKS
DULUTH         FOG       62  60  93 E9        30.07R VSB 1/4
ELY            CLOUDY    66  64  94 CALM      30.07R
HIBBING        LGT RAIN  70  66  87 CALM      30.05R
EVELETH        DRIZZLE   70  68  94 S3        30.06R
DULUTH HARBOR  CLOUDY    63  61  94 NE7       30.07R
TWO HARBORS    CLOUDY    63  57  82 CALM      30.05R
SILVER BAY     MOCLDY    63  63 100 NE3       30.05S
GRAND MARAIS     N/A     63  61  93 CALM      30.04S
G MARAIS ARPRT MOCLDY    61  57  88 N3        30.10R
$$
MNZ029>031-032-039>041-046>048-054>057-064-230400-
   West Central Minnesota

CITY           SKY/WX    TMP DP  RH WIND       PRES   REMARKS
FERGUS FALLS   PTCLDY    66  64  94 N3        30.05R
WHEATON        PTCLDY    66  64  94 N6        30.06R
MORRIS         PTCLDY    72  70  94 N8        30.02S
ALEXANDRIA     CLEAR     72  68  87 N8        30.05R
ELBOW LAKE     FAIR      69  67  94 N5        30.04R
WADENA         CLEAR     68  66  94 CALM      30.05R
GLENWOOD       PTCLDY    72  70  94 N5        30.05S
APPLETON       MOCLDY    75  70  83 N9        30.00S
BENSON         MOCLDY    73  70  88 NE5       30.01S
ORTONVILLE     MOCLDY    73  66  78 N12       30.02R
MADISON        CLOUDY    75  72  88 N7        30.01R
WILLMAR        FAIR      75  70  83 E7        30.02F
$$
MNZ033>034-036-042>043-049>051-058-059-230400-
   Central Minnesota

CITY           SKY/WX    TMP DP  RH WIND       PRES   REMARKS
ST CLOUD       PTCLDY    69  66  90 CALM      30.03R
SAUK CENTRE    CLOUDY    72  68  89 E5        30.04S
PAYNESVILLE    CLEAR     70  67  90 N7        30.04S
AITKIN         PTCLDY    70  63  78 SE3       30.05R
PINE RIVER     PTCLDY    70  68  94 CALM      30.08R
BRAINERD       PTCLDY    67  66  97 SE3       30.05R
STAPLES        MOCLDY    70  68  94 CALM      30.05R
LONG PRAIRIE   FAIR      68  68 100 CALM      30.04F
LITTLE FALLS   PTCLDY    66  64  94 CALM      30.04S
LITCHFIELD     CLEAR     73  72  94 E5        30.03F
BUFFALO        CLEAR     70  66  87 CALM      30.05R
MAPLE LAKE     CLEAR     69  68  97 CALM      30.05S
$$
MNZ037-044-045-052-053-230400-
   East Central Minnesota

CITY           SKY/WX    TMP DP  RH WIND       PRES   REMARKS
PRINCETON      CLOUDY    70  66  88 CALM      30.04R
MORA           CLEAR     64  63  94 CALM      30.07R
CAMBRIDGE      CLEAR     70  63  78 CALM      30.02R
RUSH CITY      CLOUDY    69  65  89 NE3       30.04R
MOOSE LAKE     CLOUDY    63  61  94 NE3       30.04S
HINCKLEY       CLOUDY    66  64  94 E3        30.06R
CLOQUET        CLOUDY    63  61  94 E3        30.08R FOG
MCGREGOR       CLOUDY    64  63  94 SE3       30.06R
$$
MNZ071>073-080-081-089-090-097-098-230400-
   Southwest Minnesota

CITY           SKY/WX    TMP DP  RH WIND       PRES   REMARKS
MONTEVIDEO     CLOUDY    73  72  94 E6        30.01S
GRANITE FALLS  CLOUDY    75  71  86 CALM      30.01F
CANBY          CLOUDY    74  70  87 N5        30.02R
MARSHALL       CLOUDY    75  68  78 E7        29.99S
REDWOOD FALLS  MOCLDY    76  70  82 E6        30.00S
OLIVIA         MOCLDY    73  70  88 E5        30.01S
PIPESTONE      CLOUDY    75  70  83 SE5       30.02S
WINDOM         MOCLDY    73  70  88 E3        30.02S
WORTHINGTON      N/A     70  70 100 E5        30.03S
JACKSON        PTCLDY    70  66  88 E5        30.03R
TRACY          CLOUDY    75  71  86 CALM      30.01S
SLAYTON        MOCLDY    74  70  88 CALM      30.03S
$$
MNZ065>067-074>077-082>085-091>093-230400-
   South Central Minnesota

CITY           SKY/WX    TMP DP  RH WIND       PRES   REMARKS
MANKATO        PTCLDY    73  64  73 NE9       30.00F
NEW ULM        PTCLDY    73  72  94 E6        30.01S
ST JAMES       MOCLDY    72  68  88 CALM      30.01F
FAIRMONT       MOCLDY    66  66 100 NE6       30.01S
GLENCOE        CLEAR     71  67  89 CALM      30.02R FOG
FARIBAULT      PTCLDY    72  66  83 NE3       30.02F
OWATONNA       PTCLDY    72  68  88 NE6       30.02S
WASECA         PTCLDY    72  64  78 NE3       30.03F
ALBERT LEA     MOCLDY    73  70  88 NE8       30.01S
$$
MNZ078>079-086>088-094>096-230400-
   Southeast Minnesota

CITY           SKY/WX    TMP DP  RH WIND       PRES   REMARKS
ROCHESTER      MOCLDY    73  69  87 NE8       30.03R
RED WING       MOCLDY    72  68  88 CALM      30.01R
STANTON        PTCLDY    71  67  89 CALM      30.01S
DODGE CENTER   PTCLDY    72  70  94 N7        30.02F FOG
WINONA         MOCLDY    75  72  88 CALM      29.99R
AUSTIN         CLOUDY    73  70  88 NE5       30.01S
PRESTON        MOCLDY    72  72 100 N6        30.02S
$$
ABBREVIATIONS USED IN REMARKS
   TC - TEMPERATURES IN CELSIUS
  WCI - WIND CHILL INDEX
   HX - HEAT INDEX
  VSB - VISIBILITY
$$



USA.gov is the U.S. government's official web portal to all federal, state and local government web resources and services.